Location: ??????
(55.6130°N, 37.7882°E)
Time: 14:12:53
(UTC+00:00)

Thor Agena Rocket - Pass Details

Date: 14 April 2024
Orbit: 757 x 805 km, 99.1° (Epoch: 19 May)

Event Time Altitude Azimuth Distance (km) Brightness Sun altitude
Rises 01:15:41 0° 18° (NNE) 3,235 7.6 -9.8°
Reaches altitude 10° 01:18:00 10° 20° (NNE) 2,302 6.8 -9.5°
Maximum altitude 01:23:03 72° 105° (ESE) 801 3.8 -8.9°
Drops below altitude 10° 01:28:05 10° 190° (S) 2,286 5.6 -8.3°
Sets 01:30:23 0° 193° (SSW) 3,211 6.3 -8.0°
